Terminal Aerodrome Forecast
Issued by NWS

Home | Current Version | Previous Version | Text Only | Print | Product List | Glossary On
Versions: 1 2 3 4 5 6 7 8 9 10 11 12 13 14 15
952
FTUS46 KMTR 211749 CCA
TAFSJC
TAF COR
KSJC 211749Z 2118/2218 10007KT P6SM SCT120
     FM212000 30009KT P6SM FEW120
     FM220300 31008KT P6SM FEW012 BKN150
     FM220700 31003KT P6SM BKN012=

USA.gov is the U.S. government's official web portal to all federal, state and local government web resources and services.